Time,TemperatureF,DewpointF,PressureIn,WindDirection,WindDirectionDegrees,WindSpeedMPH,WindSpeedGustMPH,Humidity,HourlyPrecipIn,Conditions,Clouds,dailyrainin,SolarRadiationWatts/m^2,SoftwareType,DateUTC
2013-08-04 00:00:00,-999.0,-99.9,30.15,West,272,1.0,-999.0,-999,-99.99,,,-99.99,0.010000,,2013-08-04 05:00:00,
2013-08-04 00:52:00,-999.0,-99.9,30.15,West,272,1.0,-999.0,-999,-99.99,,,-99.99,0.010000,,2013-08-04 05:52:00,
2013-08-04 03:00:00,-999.0,-99.9,30.12,NNE,26,1.0,-999.0,-999,-99.99,,,-99.99,0.000000,,2013-08-04 08:00:00,
2013-08-04 03:53:00,-999.0,-99.9,30.12,NNE,26,1.0,-999.0,-999,-99.99,,,-99.99,0.000000,,2013-08-04 08:53:00,
2013-08-04 04:00:00,-999.0,-99.9,30.12,NNE,19,2.0,-999.0,-999,-99.99,,,-99.99,0.000000,,2013-08-04 09:00:00,
2013-08-04 04:52:00,-999.0,-99.9,30.12,NNE,19,2.0,-999.0,-999,-99.99,,,-99.99,0.000000,,2013-08-04 09:52:00,
2013-08-04 05:00:00,-999.0,-99.9,30.14,West,274,1.0,-999.0,-999,-99.99,,,-99.99,0.000000,,2013-08-04 10:00:00,
2013-08-04 05:53:00,-999.0,-99.9,30.14,West,274,1.0,-999.0,-999,-99.99,,,-99.99,0.000000,,2013-08-04 10:53:00,
2013-08-04 06:00:00,-999.0,-99.9,30.15,West,259,1.0,-999.0,-999,-99.99,,,-99.99,0.140000,,2013-08-04 11:00:00,
2013-08-04 06:53:00,-999.0,-99.9,30.15,West,259,1.0,-999.0,-999,-99.99,,,-99.99,0.140000,,2013-08-04 11:53:00,
2013-08-04 07:00:00,-999.0,-99.9,30.15,WNW,300,0.0,-999.0,-999,-99.99,,,-99.99,31.450001,,2013-08-04 12:00:00,
2013-08-04 07:53:00,-999.0,-99.9,30.15,WNW,300,0.0,-999.0,-999,-99.99,,,-99.99,31.450001,,2013-08-04 12:53:00,
2013-08-04 08:00:00,-999.0,-99.9,30.15,NNE,17,2.0,-999.0,-999,-99.99,,,-99.99,163.100006,,2013-08-04 13:00:00,
2013-08-04 08:52:00,-999.0,-99.9,30.15,NNE,17,2.0,-999.0,-999,-99.99,,,-99.99,163.100006,,2013-08-04 13:52:00,
2013-08-04 09:00:00,-999.0,-99.9,30.16,East,91,4.0,-999.0,-999,-99.99,,,-99.99,309.500000,,2013-08-04 14:00:00,
2013-08-04 09:53:00,-999.0,-99.9,30.16,East,91,4.0,-999.0,-999,-99.99,,,-99.99,309.500000,,2013-08-04 14:53:00,
2013-08-04 10:00:00,-999.0,-99.9,30.15,SE,124,5.0,-999.0,-999,-99.99,,,-99.99,460.200012,,2013-08-04 15:00:00,
2013-08-04 10:53:00,-999.0,-99.9,30.15,SE,124,5.0,-999.0,-999,-99.99,,,-99.99,460.200012,,2013-08-04 15:53:00,
2013-08-04 11:00:00,-999.0,-99.9,30.14,SE,126,6.0,-999.0,-999,-99.99,,,-99.99,578.700012,,2013-08-04 16:00:00,
2013-08-04 11:53:00,-999.0,-99.9,30.14,SE,126,6.0,-999.0,-999,-99.99,,,-99.99,578.700012,,2013-08-04 16:53:00,
2013-08-04 12:00:00,-999.0,-99.9,30.12,SE,131,7.0,-999.0,-999,-99.99,,,-99.99,702.000000,,2013-08-04 17:00:00,
2013-08-04 12:53:00,-999.0,-99.9,30.12,SE,131,7.0,-999.0,-999,-99.99,,,-99.99,702.000000,,2013-08-04 17:53:00,
2013-08-04 13:00:00,-999.0,-99.9,30.11,SSE,162,8.0,-999.0,-999,-99.99,,,-99.99,760.000000,,2013-08-04 18:00:00,
2013-08-04 13:52:00,-999.0,-99.9,30.11,SSE,162,8.0,-999.0,-999,-99.99,,,-99.99,760.000000,,2013-08-04 18:52:00,
2013-08-04 14:00:00,-999.0,-99.9,30.10,SSE,162,6.0,-999.0,-999,-99.99,,,-99.99,792.000000,,2013-08-04 19:00:00,
2013-08-04 14:53:00,-999.0,-99.9,30.10,SSE,162,6.0,-999.0,-999,-99.99,,,-99.99,792.000000,,2013-08-04 19:53:00,
2013-08-04 15:00:00,-999.0,-99.9,30.07,SSE,163,7.0,-999.0,-999,-99.99,,,-99.99,528.299988,,2013-08-04 20:00:00,
2013-08-04 15:53:00,-999.0,-99.9,30.07,SSE,163,7.0,-999.0,-999,-99.99,,,-99.99,528.299988,,2013-08-04 20:53:00,
2013-08-04 16:00:00,-999.0,-99.9,30.05,SSE,147,6.0,-999.0,-999,-99.99,,,-99.99,480.600006,,2013-08-04 21:00:00,
2013-08-04 16:53:00,-999.0,-99.9,30.05,SSE,147,6.0,-999.0,-999,-99.99,,,-99.99,480.600006,,2013-08-04 21:53:00,
2013-08-04 17:00:00,-999.0,-99.9,30.04,SE,144,6.0,-999.0,-999,-99.99,,,-99.99,533.700012,,2013-08-04 22:00:00,
2013-08-04 17:53:00,-999.0,-99.9,30.04,SE,144,6.0,-999.0,-999,-99.99,,,-99.99,533.700012,,2013-08-04 22:53:00,
2013-08-04 18:00:00,-999.0,-99.9,30.03,SSE,148,6.0,-999.0,-999,-99.99,,,-99.99,380.399994,,2013-08-04 23:00:00,
2013-08-04 18:53:00,-999.0,-99.9,30.03,SSE,148,6.0,-999.0,-999,-99.99,,,-99.99,380.399994,,2013-08-04 23:53:00,
2013-08-04 19:00:00,-999.0,-99.9,30.02,SE,127,5.0,-999.0,-999,-99.99,,,-99.99,226.500000,,2013-08-05 00:00:00,
2013-08-04 19:52:00,-999.0,-99.9,30.02,SE,127,5.0,-999.0,-999,-99.99,,,-99.99,226.500000,,2013-08-05 00:52:00,
2013-08-04 20:00:00,-999.0,-99.9,30.02,ESE,118,4.0,-999.0,-999,-99.99,,,-99.99,82.900002,,2013-08-05 01:00:00,
2013-08-04 20:53:00,-999.0,-99.9,30.02,ESE,118,4.0,-999.0,-999,-99.99,,,-99.99,82.900002,,2013-08-05 01:53:00,
2013-08-04 21:00:00,-999.0,-99.9,30.02,ESE,120,3.0,-999.0,-999,-99.99,,,-99.99,6.580000,,2013-08-05 02:00:00,
2013-08-04 21:53:00,-999.0,-99.9,30.02,ESE,120,3.0,-999.0,-999,-99.99,,,-99.99,6.580000,,2013-08-05 02:53:00,
2013-08-04 22:00:00,-999.0,-99.9,30.03,SE,129,4.0,-999.0,-999,-99.99,,,-99.99,0.000000,,2013-08-05 03:00:00,
2013-08-04 22:53:00,-999.0,-99.9,30.03,SE,129,4.0,-999.0,-999,-99.99,,,-99.99,0.000000,,2013-08-05 03:53:00,
2013-08-04 23:00:00,-999.0,-99.9,30.03,SE,131,3.0,-999.0,-999,-99.99,,,-99.99,0.130000,,2013-08-05 04:00:00,
2013-08-04 23:52:00,-999.0,-99.9,30.03,SE,131,3.0,-999.0,-999,-99.99,,,-99.99,0.130000,,2013-08-05 04:52:00,